CES5428 ZUCK-ZSSS

Flight info

Callsign CES5428
Flight time 1h 45m
Altitude 41100
Route OLNER7W OLNER B213 WHA R343 PK
Aircraft A359/H-SDE2E3GHIJ3J4J5LM1ORWXY/LB1D1

Departure

Time 2026-05-04 04:00
Airport Chongqing Jiangbei International Airport (ZUCK)

Arrival

Time 2026-05-04 05:45
Airport Shanghai Hongqiao International Airport (ZSSS)
Time Latitude Longitude Altitude Speed Heading
2026-05-04 03:41 29.73409 106.66320 1335 ft 0 kts 258°
2026-05-04 03:41 29.73409 106.66319 1335 ft 2 kts 258°
2026-05-04 03:42 29.73409 106.66320 1335 ft 0 kts 258°
2026-05-04 03:50 29.73409 106.66323 1337 ft 2 kts 258°
2026-05-04 03:51 29.73413 106.66352 1338 ft 4 kts 265°
2026-05-04 03:51 29.73414 106.66383 1340 ft 4 kts 278°
2026-05-04 03:51 29.73406 106.66411 1339 ft 4 kts 317°
2026-05-04 03:51 29.73395 106.66418 1339 ft 0 kts 17°
2026-05-04 03:54 29.73401 106.66420 1339 ft 5 kts 17°
2026-05-04 03:55 29.73454 106.66439 1333 ft 10 kts 17°
2026-05-04 03:55 29.73531 106.66466 1332 ft 13 kts 17°
2026-05-04 03:55 29.73610 106.66507 1331 ft 7 kts 54°
2026-05-04 03:55 29.73608 106.66579 1330 ft 14 kts 104°
2026-05-04 03:56 29.73610 106.66674 1328 ft 9 kts 47°
2026-05-04 03:56 29.73679 106.66711 1327 ft 13 kts 17°
2026-05-04 03:56 29.73774 106.66745 1326 ft 16 kts 18°
2026-05-04 03:56 29.73888 106.66786 1326 ft 19 kts 17°
2026-05-04 03:57 29.74020 106.66830 1325 ft 21 kts 15°
2026-05-04 03:57 29.74167 106.66877 1324 ft 23 kts 15°
2026-05-04 03:57 29.74272 106.66913 1323 ft 24 kts 18°
2026-05-04 03:57 29.74436 106.66981 1322 ft 26 kts 20°
2026-05-04 03:58 29.74723 106.67079 1319 ft 13 kts 27°
2026-05-04 03:58 29.74717 106.67197 1318 ft 14 kts 109°
2026-05-04 03:58 29.74662 106.67256 1318 ft 8 kts 171°
2026-05-04 03:59 29.74618 106.67243 1318 ft 10 kts 197°
2026-05-04 03:59 29.74379 106.67160 1321 ft 69 kts 197°
2026-05-04 03:59 29.73698 106.66924 1325 ft 133 kts 198°
2026-05-04 03:59 29.73029 106.66694 1348 ft 168 kts 194°
2026-05-04 04:00 29.71900 106.66299 1989 ft 172 kts 195°
2026-05-04 04:00 29.70700 106.65934 2643 ft 184 kts 187°
2026-05-04 04:00 29.69335 106.65810 3083 ft 209 kts 180°
2026-05-04 04:00 29.67839 106.65802 3872 ft 218 kts 178°
2026-05-04 04:01 29.66312 106.65787 4678 ft 223 kts 179°
2026-05-04 04:01 29.64670 106.65770 5106 ft 249 kts 179°
2026-05-04 04:01 29.62873 106.65732 5718 ft 264 kts 181°
2026-05-04 04:01 29.61004 106.65680 6568 ft 272 kts 181°
2026-05-04 04:02 29.59091 106.65840 7374 ft 280 kts 167°
2026-05-04 04:02 29.57332 106.66826 8231 ft 287 kts 140°
2026-05-04 04:02 29.56133 106.68658 9104 ft 291 kts 111°
2026-05-04 04:02 29.55566 106.70901 10078 ft 294 kts 101°
2026-05-04 04:03 29.55139 106.73227 10692 ft 311 kts 101°
2026-05-04 04:03 29.54679 106.75757 11077 ft 335 kts 101°
2026-05-04 04:03 29.54173 106.78456 11520 ft 354 kts 102°
2026-05-04 04:03 29.53638 106.81251 12235 ft 362 kts 102°
2026-05-04 04:04 29.53087 106.84106 13024 ft 369 kts 102°
2026-05-04 04:04 29.52523 106.87005 13812 ft 374 kts 102°
2026-05-04 04:04 29.51963 106.89946 14525 ft 379 kts 101°
2026-05-04 04:04 29.51747 106.92967 15251 ft 382 kts 86°
2026-05-04 04:05 29.52237 106.95967 16043 ft 383 kts 72°
2026-05-04 04:05 29.53080 106.98890 16783 ft 388 kts 70°
2026-05-04 04:05 29.53965 107.01792 17570 ft 392 kts 70°
2026-05-04 04:05 29.54866 107.04764 18323 ft 396 kts 70°
2026-05-04 04:06 29.55772 107.07774 18974 ft 401 kts 70°
2026-05-04 04:06 29.56687 107.10835 19503 ft 410 kts 70°
2026-05-04 04:06 29.57620 107.13966 20081 ft 417 kts 70°
2026-05-04 04:06 29.58564 107.17143 20713 ft 423 kts 70°
2026-05-04 04:07 29.59520 107.20363 21328 ft 429 kts 70°
2026-05-04 04:07 29.60488 107.23631 21949 ft 435 kts 70°
2026-05-04 04:07 29.61594 107.26881 22573 ft 440 kts 63°
2026-05-04 04:07 29.63128 107.29940 23203 ft 443 kts 55°
2026-05-04 04:08 29.64837 107.32918 23762 ft 449 kts 54°
2026-05-04 04:08 29.66586 107.35921 24270 ft 454 kts 53°
2026-05-04 04:08 29.68331 107.38925 24795 ft 459 kts 53°
2026-05-04 04:08 29.70118 107.42007 25261 ft 467 kts 53°
2026-05-04 04:09 29.71933 107.45152 25704 ft 474 kts 53°
2026-05-04 04:09 29.73764 107.48329 26227 ft 478 kts 53°
2026-05-04 04:09 29.75613 107.51541 26718 ft 483 kts 53°
2026-05-04 04:09 29.77476 107.54783 27264 ft 487 kts 53°
2026-05-04 04:10 29.79359 107.58063 27815 ft 491 kts 53°
2026-05-04 04:10 29.81252 107.61361 28329 ft 495 kts 52°
2026-05-04 04:10 29.83162 107.64687 28773 ft 501 kts 52°
2026-05-04 04:10 29.85066 107.68012 29257 ft 505 kts 52°
2026-05-04 04:11 29.87011 107.71412 29706 ft 510 kts 52°
2026-05-04 04:11 29.88974 107.74844 30159 ft 515 kts 52°
2026-05-04 04:11 29.90952 107.78303 30479 ft 521 kts 52°
2026-05-04 04:11 29.92787 107.81946 30849 ft 529 kts 61°
2026-05-04 04:12 29.94134 107.85932 31239 ft 536 kts 69°
2026-05-04 04:12 29.95268 107.90045 31589 ft 541 kts 71°
2026-05-04 04:12 29.96323 107.94224 31919 ft 545 kts 72°
2026-05-04 04:12 29.97351 107.98446 32262 ft 549 kts 72°
2026-05-04 04:13 29.98384 108.02699 32573 ft 551 kts 72°
2026-05-04 04:13 29.99428 108.06974 32828 ft 556 kts 71°
2026-05-04 04:13 30.00492 108.11283 33127 ft 559 kts 71°
2026-05-04 04:13 30.01567 108.15607 33414 ft 562 kts 71°
2026-05-04 04:14 30.02641 108.19909 33693 ft 566 kts 71°
2026-05-04 04:14 30.03735 108.24275 33966 ft 569 kts 71°
2026-05-04 04:14 30.04837 108.28673 34269 ft 571 kts 71°
2026-05-04 04:14 30.05938 108.33080 34599 ft 571 kts 71°
2026-05-04 04:15 30.07036 108.37486 34903 ft 572 kts 71°
2026-05-04 04:15 30.08136 108.41906 35231 ft 572 kts 71°
2026-05-04 04:15 30.09235 108.46325 35506 ft 573 kts 71°
2026-05-04 04:15 30.10337 108.50765 35787 ft 574 kts 71°
2026-05-04 04:16 30.11436 108.55200 36125 ft 573 kts 71°
2026-05-04 04:16 30.12553 108.59615 36433 ft 572 kts 70°
2026-05-04 04:16 30.13781 108.63985 36715 ft 572 kts 68°
2026-05-04 04:16 30.15080 108.68339 37023 ft 572 kts 67°
2026-05-04 04:17 30.16396 108.72670 37365 ft 573 kts 67°
2026-05-04 04:17 30.17714 108.77027 37689 ft 572 kts 67°
2026-05-04 04:17 30.19012 108.81374 37896 ft 574 kts 68°
2026-05-04 04:17 30.20301 108.85750 38086 ft 575 kts 68°
2026-05-04 04:18 30.21578 108.90134 38353 ft 575 kts 68°
2026-05-04 04:18 30.22826 108.94465 38613 ft 575 kts 68°
2026-05-04 04:18 30.24003 108.98899 38837 ft 577 kts 70°
2026-05-04 04:18 30.25094 109.03369 39010 ft 578 kts 71°
2026-05-04 04:19 30.26150 109.07859 39233 ft 577 kts 71°
2026-05-04 04:19 30.27202 109.12347 39455 ft 576 kts 71°
2026-05-04 04:19 30.28265 109.16825 39624 ft 577 kts 71°
2026-05-04 04:19 30.29337 109.21290 39832 ft 576 kts 71°
2026-05-04 04:20 30.30420 109.25757 40050 ft 576 kts 71°
2026-05-04 04:20 30.31503 109.30216 40250 ft 575 kts 71°
2026-05-04 04:20 30.32586 109.34656 40467 ft 572 kts 70°
2026-05-04 04:20 30.33665 109.39082 40741 ft 571 kts 70°
2026-05-04 04:21 30.34745 109.43501 40970 ft 571 kts 70°
2026-05-04 04:21 30.35823 109.47922 41147 ft 570 kts 70°
2026-05-04 04:21 30.37972 109.56801 41223 ft 573 kts 71°
2026-05-04 04:22 30.39659 109.65781 41222 ft 575 kts 77°
2026-05-04 04:22 30.41040 109.74914 41228 ft 574 kts 77°
2026-05-04 04:23 30.42365 109.84052 41224 ft 576 kts 78°
2026-05-04 04:23 30.43689 109.93217 41222 ft 577 kts 78°
2026-05-04 04:24 30.45018 110.02392 41225 ft 576 kts 78°
2026-05-04 04:24 30.46346 110.11554 41225 ft 576 kts 78°
2026-05-04 04:25 30.47657 110.20672 41225 ft 577 kts 78°
2026-05-04 04:25 30.48971 110.29878 41215 ft 578 kts 78°
2026-05-04 04:26 30.50281 110.39070 41226 ft 578 kts 78°
2026-05-04 04:26 30.51584 110.48264 41215 ft 578 kts 78°
2026-05-04 04:27 30.52881 110.57474 41214 ft 579 kts 78°
2026-05-04 04:27 30.54172 110.66689 41204 ft 579 kts 78°
2026-05-04 04:28 30.55449 110.75858 41207 ft 580 kts 78°
2026-05-04 04:28 30.56727 110.85087 41196 ft 580 kts 79°
2026-05-04 04:29 30.58002 110.94336 41186 ft 579 kts 79°
2026-05-04 04:29 30.59273 111.03591 41213 ft 580 kts 79°
2026-05-04 04:30 30.60532 111.12830 41180 ft 579 kts 79°
2026-05-04 04:30 30.61774 111.22018 41185 ft 580 kts 79°
2026-05-04 04:31 30.63029 111.31276 41172 ft 580 kts 79°
2026-05-04 04:31 30.64273 111.40546 41181 ft 580 kts 79°
2026-05-04 04:32 30.65298 111.49870 41181 ft 582 kts 84°
2026-05-04 04:32 30.65856 111.59232 41179 ft 582 kts 85°
2026-05-04 04:33 30.66329 111.68614 41177 ft 582 kts 85°
2026-05-04 04:33 30.66795 111.77996 41179 ft 582 kts 85°
2026-05-04 04:34 30.67257 111.87315 41183 ft 582 kts 85°
2026-05-04 04:34 30.67724 111.96728 41184 ft 583 kts 85°
2026-05-04 04:35 30.68298 112.06131 41189 ft 583 kts 84°
2026-05-04 04:35 30.68982 112.15491 41176 ft 581 kts 84°
2026-05-04 04:36 30.69650 112.24862 41182 ft 582 kts 84°
2026-05-04 04:36 30.70286 112.34246 41183 ft 583 kts 84°
2026-05-04 04:37 30.71512 112.52993 41183 ft 583 kts 84°
2026-05-04 04:38 30.72119 112.62399 41185 ft 584 kts 84°
2026-05-04 04:38 30.72721 112.71822 41186 ft 584 kts 85°
2026-05-04 04:39 30.73315 112.81236 41185 ft 584 kts 85°
2026-05-04 04:39 30.73903 112.90649 41188 ft 585 kts 85°
2026-05-04 04:40 30.74485 113.00086 41187 ft 585 kts 85°
2026-05-04 04:40 30.75059 113.09513 41222 ft 585 kts 85°
2026-05-04 04:41 30.75587 113.18882 41179 ft 583 kts 86°
2026-05-04 04:41 30.75823 113.28306 41181 ft 583 kts 88°
2026-05-04 04:42 30.75983 113.37734 41197 ft 583 kts 88°
2026-05-04 04:42 30.76181 113.47172 41184 ft 583 kts 88°
2026-05-04 04:43 30.76404 113.56600 41185 ft 584 kts 88°
2026-05-04 04:43 30.76629 113.66040 41187 ft 584 kts 88°
2026-05-04 04:44 30.76845 113.75492 41182 ft 584 kts 88°
2026-05-04 04:44 30.77018 113.83340 41190 ft 585 kts 88°
2026-05-04 04:45 30.77251 113.94345 41192 ft 585 kts 88°
2026-05-04 04:47 30.79915 114.25535 41208 ft 579 kts 67°
2026-05-04 04:47 30.82709 114.34303 41199 ft 577 kts 65°
2026-05-04 04:48 30.85570 114.43031 41193 ft 577 kts 65°
2026-05-04 04:49 30.92669 114.64856 41202 ft 578 kts 65°
2026-05-04 04:49 30.95506 114.73626 41198 ft 578 kts 66°
2026-05-04 04:50 30.98326 114.82376 41194 ft 576 kts 66°
2026-05-04 04:50 31.01139 114.91130 41197 ft 575 kts 66°
2026-05-04 04:51 31.03945 114.99870 41197 ft 575 kts 66°
2026-05-04 04:51 31.06742 115.08621 41197 ft 576 kts 66°
2026-05-04 04:52 31.09518 115.17338 41200 ft 577 kts 66°
2026-05-04 04:52 31.12302 115.26114 41199 ft 576 kts 66°
2026-05-04 04:53 31.15082 115.34870 41193 ft 574 kts 65°
2026-05-04 04:53 31.17926 115.43606 41205 ft 575 kts 65°
2026-05-04 04:54 31.20764 115.52338 41213 ft 575 kts 66°
2026-05-04 04:54 31.23587 115.61091 41206 ft 575 kts 66°
2026-05-04 04:55 31.26383 115.69798 41200 ft 576 kts 66°
2026-05-04 04:55 31.29196 115.78588 41201 ft 577 kts 66°
2026-05-04 04:56 31.31999 115.87392 41198 ft 577 kts 66°
2026-05-04 04:56 31.34830 115.96176 41183 ft 577 kts 65°
2026-05-04 04:57 31.37708 116.04971 41188 ft 578 kts 65°
2026-05-04 04:57 31.40578 116.13754 41227 ft 578 kts 66°
2026-05-04 04:58 31.43418 116.22490 41184 ft 576 kts 66°
2026-05-04 04:58 31.46255 116.31272 41180 ft 576 kts 66°
2026-05-04 04:59 31.49088 116.40068 41177 ft 577 kts 66°
2026-05-04 04:59 31.51921 116.48887 41177 ft 577 kts 66°
2026-05-04 05:00 31.54745 116.57699 41166 ft 577 kts 66°
2026-05-04 05:01 31.58973 116.70939 41176 ft 577 kts 66°
2026-05-04 05:01 31.61758 116.79689 41182 ft 576 kts 66°
2026-05-04 05:02 31.64555 116.88503 41168 ft 576 kts 66°
2026-05-04 05:02 31.67355 116.97348 41180 ft 577 kts 66°
2026-05-04 05:03 31.70138 117.06199 41214 ft 578 kts 67°
2026-05-04 05:04 31.75587 117.23907 41191 ft 576 kts 67°
2026-05-04 05:04 31.76668 117.28450 41191 ft 580 kts 78°
2026-05-04 05:04 31.77102 117.33157 41198 ft 580 kts 90°
2026-05-04 05:06 31.74672 117.70912 41199 ft 581 kts 96°
2026-05-04 05:07 31.73996 117.80382 41200 ft 581 kts 96°
2026-05-04 05:07 31.73316 117.89873 41199 ft 581 kts 96°
2026-05-04 05:09 31.70286 118.32270 41204 ft 579 kts 96°
2026-05-04 05:10 31.69622 118.41710 41205 ft 580 kts 96°
2026-05-04 05:10 31.68951 118.51092 41205 ft 580 kts 96°
2026-05-04 05:11 31.68267 118.60542 41204 ft 581 kts 97°
2026-05-04 05:11 31.67575 118.69997 41201 ft 581 kts 97°
2026-05-04 05:12 31.66876 118.79458 41201 ft 582 kts 97°
2026-05-04 05:12 31.66169 118.88920 41199 ft 582 kts 97°
2026-05-04 05:13 31.65456 118.98388 41202 ft 582 kts 97°
2026-05-04 05:13 31.64770 119.07791 41208 ft 583 kts 96°
2026-05-04 05:14 31.64279 119.17297 41209 ft 583 kts 94°
2026-05-04 05:14 31.63902 119.26820 41201 ft 583 kts 94°
2026-05-04 05:15 31.63509 119.36338 41219 ft 583 kts 95°
2026-05-04 05:15 31.63082 119.45838 41207 ft 582 kts 95°
2026-05-04 05:16 31.62625 119.55314 41192 ft 581 kts 95°
2026-05-04 05:16 31.62161 119.64729 41209 ft 582 kts 95°
2026-05-04 05:17 31.61707 119.74213 41206 ft 583 kts 95°
2026-05-04 05:17 31.61274 119.83703 41200 ft 583 kts 95°
2026-05-04 05:18 31.60835 119.93203 41211 ft 583 kts 95°
2026-05-04 05:18 31.60385 120.02708 41210 ft 583 kts 95°
2026-05-04 05:19 31.59926 120.12203 41185 ft 583 kts 95°
2026-05-04 05:19 31.59459 120.21715 41214 ft 584 kts 95°
2026-05-04 05:20 31.58838 120.31219 41205 ft 580 kts 106°
2026-05-04 05:20 31.56716 120.40231 41197 ft 575 kts 114°
2026-05-04 05:21 31.54017 120.49051 41214 ft 574 kts 116°
2026-05-04 05:21 31.51260 120.57843 41214 ft 575 kts 115°
2026-05-04 05:22 31.48566 120.66666 41210 ft 575 kts 115°
2026-05-04 05:22 31.45904 120.75512 41210 ft 575 kts 114°
2026-05-04 05:23 31.43246 120.84353 41214 ft 575 kts 114°
2026-05-04 05:23 31.40579 120.93185 41215 ft 575 kts 115°
2026-05-04 05:24 31.40066 120.94877 41214 ft 575 kts 115°
2026-05-04 05:24 31.38729 120.99289 41207 ft 575 kts 115°
2026-05-04 05:25 31.36063 121.08059 41208 ft 576 kts 115°
2026-05-04 05:25 31.33649 121.17007 41218 ft 583 kts 101°
2026-05-04 05:26 31.33453 121.21750 41213 ft 586 kts 87°
2026-05-04 05:26 31.33854 121.26490 41191 ft 587 kts 80°
2026-05-04 05:26 31.34792 121.31137 41177 ft 584 kts 69°
2026-05-04 05:26 31.36354 121.35468 40708 ft 575 kts 57°
2026-05-04 05:27 31.38600 121.39306 39825 ft 569 kts 42°
2026-05-04 05:28 31.62175 121.44920 32550 ft 486 kts 324°
2026-05-04 05:29 31.65066 121.43008 30933 ft 471 kts 315°
2026-05-04 05:29 31.67550 121.40608 29141 ft 456 kts 305°
2026-05-04 05:29 31.69359 121.37659 27361 ft 438 kts 291°
2026-05-04 05:29 31.70323 121.34332 25701 ft 426 kts 276°
2026-05-04 05:31 31.57192 121.20269 15909 ft 386 kts 194°
2026-05-04 05:31 31.54595 121.19956 15474 ft 364 kts 186°
2026-05-04 05:32 31.52142 121.19861 15124 ft 341 kts 185°
2026-05-04 05:32 31.49828 121.19803 14636 ft 326 kts 184°
2026-05-04 05:32 31.47581 121.19754 13957 ft 320 kts 184°
2026-05-04 05:33 31.43916 121.19682 12630 ft 314 kts 184°
2026-05-04 05:33 31.41038 121.19638 11565 ft 310 kts 184°
2026-05-04 05:33 31.38889 121.19601 10802 ft 308 kts 183°
2026-05-04 05:33 31.36747 121.19571 10052 ft 306 kts 183°
2026-05-04 05:34 31.34634 121.19541 9280 ft 301 kts 183°
2026-05-04 05:34 31.32540 121.19511 8456 ft 300 kts 182°
2026-05-04 05:34 31.30457 121.19479 7629 ft 298 kts 184°
2026-05-04 05:34 31.29056 121.19450 7319 ft 298 kts 183°
2026-05-04 05:35 31.27033 121.19428 7054 ft 290 kts 183°
2026-05-04 05:35 31.25052 121.19401 6957 ft 277 kts 183°
2026-05-04 05:35 31.23168 121.19368 6895 ft 265 kts 184°
2026-05-04 05:35 31.21364 121.19327 6766 ft 254 kts 184°
2026-05-04 05:36 31.19617 121.19346 6565 ft 249 kts 180°
2026-05-04 05:36 31.17887 121.19484 6266 ft 249 kts 179°
2026-05-04 05:36 31.16172 121.19620 5987 ft 242 kts 179°
2026-05-04 05:36 31.14518 121.19753 5705 ft 236 kts 178°
2026-05-04 05:37 31.12901 121.19890 5466 ft 235 kts 178°
2026-05-04 05:37 31.11279 121.20042 5268 ft 232 kts 175°
2026-05-04 05:37 31.09662 121.20203 5032 ft 231 kts 178°
2026-05-04 05:38 31.06492 121.20399 4637 ft 226 kts 180°
2026-05-04 05:38 31.04972 121.20676 4323 ft 225 kts 163°
2026-05-04 05:38 31.03740 121.21778 4183 ft 227 kts 125°
2026-05-04 05:38 31.03160 121.23488 3849 ft 228 kts 104°
2026-05-04 05:39 31.02830 121.25284 3581 ft 226 kts 102°
2026-05-04 05:39 31.02195 121.28848 3145 ft 223 kts 104°
2026-05-04 05:39 31.01941 121.30630 2895 ft 224 kts 93°
2026-05-04 05:40 31.03307 121.33598 2648 ft 203 kts 31°
2026-05-04 05:40 31.04558 121.34176 2601 ft 187 kts 11°
2026-05-04 05:40 31.05792 121.34399 2501 ft 174 kts 355°
2026-05-04 05:41 31.06978 121.34284 2253 ft 170 kts 354°
2026-05-04 05:41 31.08124 121.34247 2027 ft 161 kts 354°
2026-05-04 05:41 31.09225 121.34197 1785 ft 156 kts 354°
2026-05-04 05:41 31.10290 121.34140 1591 ft 150 kts 354°
2026-05-04 05:42 31.11302 121.34089 1388 ft 142 kts 353°
2026-05-04 05:42 31.12256 121.34037 1255 ft 133 kts 355°
2026-05-04 05:42 31.13196 121.33984 1054 ft 136 kts 356°
2026-05-04 05:42 31.14133 121.33939 821 ft 135 kts 355°
2026-05-04 05:43 31.15068 121.33892 652 ft 134 kts 356°
2026-05-04 05:43 31.15990 121.33835 480 ft 132 kts 356°
2026-05-04 05:43 31.16910 121.33786 333 ft 133 kts 356°
2026-05-04 05:45 31.20430 121.33468 29 ft 12 kts 329°
2026-05-04 05:45 31.20509 121.33404 28 ft 15 kts 310°
2026-05-04 05:47 31.20517 121.33251 28 ft 14 kts 267°
2026-05-04 05:47 31.20511 121.33126 26 ft 17 kts 267°
2026-05-04 05:47 31.20507 121.32997 26 ft 9 kts 268°
2026-05-04 05:48 31.20472 121.32942 30 ft 10 kts 201°
2026-05-04 05:48 31.20397 121.32941 28 ft 13 kts 177°
2026-05-04 05:48 31.20293 121.32946 28 ft 16 kts 178°
2026-05-04 05:48 31.20177 121.32951 28 ft 5 kts 178°
2026-05-04 05:49 31.20175 121.32951 28 ft 1 kts 179°
2026-05-04 05:49 31.20149 121.32943 29 ft 5 kts 206°
2026-05-04 05:49 31.20138 121.32910 31 ft 6 kts 259°
2026-05-04 05:49 31.20135 121.32836 28 ft 11 kts 268°
2026-05-04 05:51 31.19969 121.32727 28 ft 0 kts 177°